When you browse on this site, cookies collect data to enhance your experience and personalize the content and advertising you see.
Visit our Privacy Policy to learn more. By continuing to use the site, you agree to this use of cookies and data.
  • In Romania
  • List of Countries
  • For 7 days
  • Water Temperature
  • Satellite Maps
  • Weather Map
  • Weather Widgets
  • user-avatar
    Login

    Hourly Weather Seram

    Today, 18 July, Thursday

    Time Temperature Precipitation Wind Pressure Humidity
    00:00 +29°C° 0.3 mm 3 mps 718 mmHg 76%
    01:00 +28°C° 0.3 mm 3 mps 717 mmHg 77%
    02:00 +28°C° 0.3 mm 4 mps 717 mmHg 79%
    03:00 +28°C° 0.6 mm 4 mps 717 mmHg 80%
    04:00 +27°C° 0.6 mm 4 mps 717 mmHg 81%
    05:00 +27°C° 0 mm 4 mps 717 mmHg 84%
    06:00 +28°C° 0.9 mm 4 mps 717 mmHg 81%
    07:00 +28°C° 0.9 mm 5 mps 718 mmHg 79%
    08:00 +29°C° 0.9 mm 5 mps 718 mmHg 76%
    09:00 +30°C° 1.4 mm 5 mps 718 mmHg 72%
    10:00 +32°C° 1.4 mm 5 mps 718 mmHg 68%
    11:00 +33°C° 0 mm 3 mps 719 mmHg 64%
    12:00 +34°C° 1.1 mm 3 mps 718 mmHg 61%
    13:00 +34°C° 1.1 mm 3 mps 717 mmHg 58%
    14:00 +35°C° 1.1 mm 3 mps 717 mmHg 55%
    15:00 +34°C° 0.5 mm 3 mps 716 mmHg 57%
    16:00 +34°C° 0.5 mm 3 mps 716 mmHg 59%
    17:00 +32°C° 0.5 mm 2 mps 716 mmHg 61%
    18:00 +32°C° 0.1 mm 2 mps 716 mmHg 64%
    19:00 +31°C° 0.1 mm 1 mps 716 mmHg 67%
    20:00 +30°C° 0.1 mm 1 mps 716 mmHg 69%
    21:00 +28°C° 0.3 mm 0 mps 716 mmHg 71%
    22:00 +28°C° 0.3 mm 0 mps 717 mmHg 73%
    23:00 +27°C° 0.3 mm 0 mps 717 mmHg 74%

    Tomorrow, 19 July, Friday

    Time Temperature Precipitation Wind Pressure Humidity
    00:00 +29°C° 0.7 mm 1 mps 716 mmHg 76%
    01:00 +29°C° 0.7 mm 1 mps 716 mmHg 78%
    02:00 +28°C° 0.7 mm 1 mps 715 mmHg 79%
    03:00 +28°C° 1.2 mm 1 mps 716 mmHg 79%
    04:00 +28°C° 1.2 mm 2 mps 716 mmHg 80%
    05:00 +28°C° 1.2 mm 2 mps 716 mmHg 80%
    06:00 +29°C° 0.8 mm 2 mps 716 mmHg 76%
    07:00 +30°C° 0.8 mm 3 mps 717 mmHg 72%
    08:00 +31°C° 0.8 mm 3 mps 717 mmHg 69%
    09:00 +33°C° 0.4 mm 3 mps 717 mmHg 64%
    10:00 +34°C° 0.4 mm 3 mps 717 mmHg 60%
    11:00 +35°C° 0.4 mm 3 mps 717 mmHg 56%
    12:00 +34°C° 0.5 mm 4 mps 716 mmHg 59%
    13:00 +34°C° 0.5 mm 4 mps 716 mmHg 62%
    14:00 +33°C° 0.5 mm 4 mps 715 mmHg 64%
    15:00 +32°C° 0.6 mm 4 mps 715 mmHg 70%
    16:00 +29°C° 0.6 mm 4 mps 715 mmHg 76%
    17:00 +28°C° 0.6 mm 3 mps 715 mmHg 81%
    18:00 +28°C° 0.1 mm 3 mps 715 mmHg 82%
    19:00 +28°C° 0.1 mm 2 mps 715 mmHg 82%
    20:00 +28°C° 0.1 mm 2 mps 716 mmHg 82%
    21:00 +28°C° 0.5 mm 2 mps 716 mmHg 83%
    22:00 +27°C° 0.5 mm 3 mps 716 mmHg 84%
    23:00 +27°C° 0.5 mm 4 mps 716 mmHg 85%

    Day after tomorrow, 20 July, Saturday

    Time Temperature Precipitation Wind Pressure Humidity
    00:00 +27°C° 0.7 mm 4 mps 716 mmHg 87%
    01:00 +26°C° 0.7 mm 3 mps 716 mmHg 88%
    02:00 +26°C° 0.7 mm 3 mps 715 mmHg 89%
    03:00 +26°C° 0.5 mm 3 mps 715 mmHg 89%
    04:00 +26°C° 0.5 mm 2 mps 715 mmHg 90%
    05:00 +26°C° 0.5 mm 2 mps 716 mmHg 90%
    06:00 +26°C° 0.1 mm 3 mps 716 mmHg 88%
    07:00 +27°C° 0.1 mm 3 mps 717 mmHg 85%
    08:00 +28°C° 0.1 mm 3 mps 717 mmHg 83%
    09:00 +29°C° 0 mm 3 mps 717 mmHg 80%
    10:00 +30°C° 0 mm 3 mps 717 mmHg 77%
    11:00 +30°C° 0 mm 3 mps 717 mmHg 74%
    12:00 +31°C° 0.1 mm 3 mps 716 mmHg 71%
    13:00 +33°C° 0.1 mm 3 mps 716 mmHg 68%
    14:00 +33°C° 0.1 mm 3 mps 715 mmHg 65%
    15:00 +33°C° 2.1 mm 3 mps 715 mmHg 67%
    16:00 +33°C° 2.1 mm 3 mps 715 mmHg 70%
    17:00 +31°C° 2.1 mm 3 mps 714 mmHg 72%
    18:00 +30°C° 2.2 mm 3 mps 715 mmHg 76%
    19:00 +30°C° 2.2 mm 2 mps 715 mmHg 79%
    20:00 +29°C° 2.2 mm 2 mps 716 mmHg 83%
    21:00 +29°C° 1.1 mm 2 mps 716 mmHg 84%
    22:00 +29°C° 1.1 mm 2 mps 716 mmHg 85%
    23:00 +28°C° 1.1 mm 2 mps 716 mmHg 86%

    21 July, Sunday

    Time Temperature Precipitation Wind Pressure Humidity
    00:00 +28°C° 1.9 mm 2 mps 716 mmHg 86%
    01:00 +28°C° 1.9 mm 2 mps 715 mmHg 86%
    02:00 +28°C° 1.9 mm 2 mps 715 mmHg 86%
    03:00 +27°C° 0.1 mm 2 mps 715 mmHg 88%
    04:00 +27°C° 0.1 mm 2 mps 715 mmHg 90%
    05:00 +27°C° 0.1 mm 3 mps 715 mmHg 92%
    06:00 +27°C° 0.1 mm 3 mps 716 mmHg 89%
    07:00 +28°C° 0.1 mm 3 mps 716 mmHg 86%
    08:00 +29°C° 0.1 mm 3 mps 717 mmHg 83%
    09:00 +29°C° 0.2 mm 3 mps 717 mmHg 80%
    10:00 +30°C° 0.2 mm 3 mps 717 mmHg 76%
    11:00 +32°C° 0.2 mm 4 mps 717 mmHg 73%
    12:00 +32°C° 0.6 mm 4 mps 716 mmHg 71%
    13:00 +33°C° 0.6 mm 4 mps 715 mmHg 69%
    14:00 +33°C° 0.6 mm 4 mps 715 mmHg 67%
    15:00 +33°C° 0.6 mm 3 mps 714 mmHg 67%
    16:00 +33°C° 0.6 mm 3 mps 714 mmHg 68%
    17:00 +33°C° 0.6 mm 3 mps 714 mmHg 68%
    18:00 +31°C° 1 mm 3 mps 714 mmHg 71%
    19:00 +31°C° 1 mm 3 mps 715 mmHg 74%
    20:00 +30°C° 1 mm 2 mps 715 mmHg 78%
    21:00 +30°C° 2.4 mm 2 mps 716 mmHg 79%
    22:00 +29°C° 2.4 mm 3 mps 716 mmHg 81%
    23:00 +29°C° 2.4 mm 3 mps 716 mmHg 82%

    22 July, Monday

    Time Temperature Precipitation Wind Pressure Humidity
    00:00 +28°C° 0.7 mm 3 mps 715 mmHg 84%
    01:00 +28°C° 0.7 mm 3 mps 715 mmHg 86%
    02:00 +27°C° 0.7 mm 3 mps 715 mmHg 88%
    03:00 +27°C° 0 mm 2 mps 714 mmHg 90%
    04:00 +27°C° 0 mm 2 mps 714 mmHg 91%
    05:00 +27°C° 0 mm 2 mps 714 mmHg 93%
    06:00 +27°C° 0 mm 3 mps 715 mmHg 90%
    07:00 +28°C° 0 mm 3 mps 715 mmHg 88%
    08:00 +28°C° 0 mm 4 mps 716 mmHg 85%
    09:00 +30°C° 0.2 mm 4 mps 716 mmHg 81%
    10:00 +32°C° 0.2 mm 4 mps 716 mmHg 76%
    11:00 +33°C° 0.2 mm 4 mps 716 mmHg 71%
    12:00 +33°C° 0.6 mm 4 mps 715 mmHg 69%
    13:00 +34°C° 0.6 mm 3 mps 714 mmHg 66%
    14:00 +34°C° 0.6 mm 3 mps 714 mmHg 63%
    15:00 +34°C° 0.2 mm 3 mps 713 mmHg 63%
    16:00 +34°C° 0.2 mm 2 mps 713 mmHg 63%
    17:00 +34°C° 0.2 mm 2 mps 713 mmHg 62%
    18:00 +33°C° 0 mm 1 mps 713 mmHg 66%
    19:00 +32°C° 0 mm 1 mps 714 mmHg 70%
    20:00 +31°C° 0 mm 1 mps 714 mmHg 74%
    21:00 +31°C° 1.1 mm 1 mps 714 mmHg 76%
    22:00 +30°C° 1.1 mm 1 mps 714 mmHg 78%
    23:00 +30°C° 1.1 mm 1 mps 715 mmHg 81%

    23 July, Tuesday

    Time Temperature Precipitation Wind Pressure Humidity
    00:00 +29°C° 1 mm 1 mps 714 mmHg 81%
    01:00 +29°C° 1 mm 2 mps 714 mmHg 82%
    02:00 +29°C° 1 mm 2 mps 714 mmHg 82%
    03:00 +28°C° 0.1 mm 2 mps 714 mmHg 85%
    04:00 +28°C° 0.1 mm 2 mps 714 mmHg 87%
    05:00 +27°C° 0.1 mm 3 mps 714 mmHg 90%
    06:00 +28°C° 0.1 mm 3 mps 714 mmHg 87%
    07:00 +29°C° 0.1 mm 3 mps 715 mmHg 84%
    08:00 +29°C° 0.1 mm 3 mps 715 mmHg 82%
    09:00 +31°C° 0.6 mm 3 mps 715 mmHg 75%
    10:00 +33°C° 0.6 mm 3 mps 715 mmHg 69%
    11:00 +34°C° 0.6 mm 3 mps 715 mmHg 63%
    12:00 +35°C° 0.3 mm 3 mps 715 mmHg 61%
    13:00 +35°C° 0.3 mm 2 mps 714 mmHg 59%
    14:00 +35°C° 0.3 mm 2 mps 714 mmHg 57%
    15:00 +35°C° 0.3 mm 2 mps 713 mmHg 57%
    16:00 +35°C° 0.3 mm 2 mps 713 mmHg 58%
    17:00 +35°C° 0.3 mm 2 mps 713 mmHg 59%
    18:00 +33°C° 0.7 mm 1 mps 714 mmHg 65%
    19:00 +32°C° 0.7 mm 1 mps 714 mmHg 71%
    20:00 +31°C° 0.7 mm 1 mps 714 mmHg 77%
    21:00 +30°C° 0.3 mm 1 mps 715 mmHg 78%
    22:00 +30°C° 0.3 mm 1 mps 715 mmHg 78%
    23:00 +30°C° 0.3 mm 1 mps 715 mmHg 79%
    Show more